Date String (YYYY-MM-DD hh:mm:ss) UTC,Instrument flags,absolute air pressure of the measurement (hPa),sample flow rate (lpm),inlet stack bypass flow (lpm),air temperature of the measurement (°C),ambient temperature measured by the external sensor (°C),aerosol sample conditioner tube jacket temperature (°C),OPC LED temperature (°C),internal box temperature (°C),relative humidity of the measurement (%),span deviation,mass concentration of particles derived from Lorenz-Mie calculation of OPC scattering (μg/m³),mass concentration of particles derived from Lorenz-Mie calculation of OPC scattering (μg/m³),mass concentration of particles derived from Lorenz-Mie calculation of OPC scattering (μg/m³)
DateTimeUTC,F1_M11,P_M11,Q1_M11,Q2_M11,T1_M11,T2_M11,T3_M11,T4_M11,T5_M11,U1_M11,ZSPAN_M11,X2_M11,X0_M11,X1_M11
2024-01-14 11:00:00,SystemResetWarning,0822.4,5.01,000.00,019.1,018.9,000.0,027.3,020.2,3.9,0003.3,0004.50,0008.51,0004.08
2024-01-14 11:01:00,SystemResetWarning,0822.4,5.01,000.00,019.0,018.6,000.0,027.3,020.0,3.9,0001.4,0004.49,0008.46,0004.07
2024-01-14 11:02:00,SystemResetWarning,0822.3,4.99,000.00,019.0,018.4,000.0,027.3,020.0,4.0,0002.9,0004.45,0008.38,0004.06
2024-01-14 11:03:00,SystemResetWarning,0822.4,5.00,000.00,018.9,018.2,000.0,027.3,020.0,4.0,0000.8,0004.48,0008.15,0004.07
2024-01-14 11:04:00,SystemResetWarning,0822.2,5.01,000.00,018.9,018.1,000.0,027.3,020.0,4.0,0000.0,0004.48,0008.08,0004.06
2024-01-14 11:05:00,SystemResetWarning,0822.1,5.00,000.00,018.9,018.0,000.0,027.4,020.1,4.0,0000.0,0004.49,0008.19,0004.07
2024-01-14 11:06:00,SystemResetWarning,0822.0,5.01,000.00,019.0,018.5,000.0,027.3,020.6,3.9,0000.0,0004.53,0007.73,0004.07
2024-01-14 11:07:00,SystemResetWarning,0821.9,5.01,000.00,019.1,019.2,000.0,027.4,021.0,3.9,0000.0,0004.56,0007.70,0004.08
2024-01-14 11:08:00,SystemResetWarning,0822.0,4.99,000.00,019.3,019.5,000.0,027.4,020.9,3.9,0000.0,0004.54,0007.62,0004.10
2024-01-14 11:09:00,SystemResetWarning,0822.0,4.99,000.00,019.2,019.2,000.0,027.4,020.5,3.9,0000.0,0004.56,0007.65,0004.10
2024-01-14 11:10:00,SystemResetWarning,0822.1,5.00,000.00,019.1,018.9,000.0,027.4,020.2,3.9,0000.0,0004.58,0007.75,0004.11
2024-01-14 11:11:00,SystemResetWarning,0822.1,5.00,000.00,019.0,018.6,000.0,027.4,020.0,3.9,0000.0,0004.57,0007.72,0004.12
2024-01-14 11:12:00,SystemResetWarning,0822.0,5.00,000.00,019.0,018.3,000.0,027.4,020.0,3.9,0000.0,0004.58,0007.75,0004.13
2024-01-14 11:13:00,SystemResetWarning,0822.0,5.00,000.00,019.0,018.1,000.0,027.4,020.0,4.0,0000.0,0004.64,0008.31,0004.16
2024-01-14 11:14:00,SystemResetWarning,0822.0,4.99,000.00,018.9,017.9,000.0,027.4,020.0,4.0,0000.0,0004.64,0008.35,0004.16
2024-01-14 11:15:00,SystemResetWarning,0822.1,5.02,000.00,018.9,018.0,000.0,027.4,020.3,3.9,0000.0,0004.62,0008.42,0004.16
2024-01-14 11:16:00,SystemResetWarning,0822.1,5.00,000.00,019.1,018.7,000.0,027.4,020.8,3.9,0000.0,0004.61,0009.00,0004.15
2024-01-14 11:17:00,SystemResetWarning,0822.1,4.99,000.00,019.2,019.1,000.0,027.4,020.7,3.9,0000.0,0004.58,0009.02,0004.16
2024-01-14 11:18:00,SystemResetWarning,0822.1,4.99,000.00,019.1,018.9,000.0,027.4,020.4,3.9,0000.0,0004.59,0009.00,0004.18
2024-01-14 11:19:00,SystemResetWarning,0822.1,5.01,000.00,019.0,018.5,000.0,027.3,020.0,3.9,0000.0,0004.60,0009.07,0004.19
2024-01-14 11:20:00,SystemResetWarning,0822.0,5.01,000.00,019.0,018.3,000.0,027.4,020.0,3.9,0000.0,0004.60,0009.08,0004.20
2024-01-14 11:21:00,SystemResetWarning,0822.1,5.01,000.00,018.9,018.1,000.0,027.4,020.0,3.9,0000.0,0004.57,0008.99,0004.19
2024-01-14 11:22:00,SystemResetWarning,0822.0,4.99,000.00,018.9,017.9,000.0,027.4,020.0,3.9,0000.0,0004.59,0009.16,0004.20
2024-01-14 11:23:00,SystemResetWarning,0822.0,5.00,000.00,018.9,018.0,000.0,027.4,020.3,3.9,0000.0,0004.59,0009.13,0004.20
2024-01-14 11:24:00,SystemResetWarning,0822.0,5.01,000.00,019.0,018.6,000.0,027.4,020.7,3.9,0000.0,0004.53,0008.53,0004.19
2024-01-14 11:25:00,SystemResetWarning,0822.0,4.99,000.00,019.1,019.0,000.0,027.4,020.6,3.9,0000.0,0004.51,0008.46,0004.17
2024-01-14 11:26:00,SystemResetWarning,0821.9,4.99,000.00,019.1,018.7,000.0,027.3,020.1,3.9,0000.0,0004.52,0008.45,0004.17
2024-01-14 11:27:00,SystemResetWarning,0821.9,5.00,000.00,019.0,018.4,000.0,027.4,020.0,3.9,0000.0,0004.55,0007.78,0004.18
2024-01-14 11:28:00,SystemResetWarning,0822.0,5.00,000.00,019.0,018.2,000.0,027.4,020.0,3.9,0000.0,0004.58,0007.72,0004.19
2024-01-14 11:29:00,SystemResetWarning,0822.1,5.01,000.00,018.9,017.9,000.0,027.4,020.0,3.9,0000.0,0004.56,0007.70,0004.17
2024-01-14 11:30:00,SystemResetWarning,0822.0,5.01,000.00,018.9,018.1,000.0,027.4,020.3,3.9,0000.0,0004.57,0007.72,0004.17
2024-01-14 11:31:00,SystemResetWarning,0822.0,5.00,000.00,019.1,018.7,000.0,027.3,020.8,3.9,0000.0,0004.57,0007.74,0004.16
2024-01-14 11:32:00,SystemResetWarning,0822.0,4.99,000.00,019.1,019.0,000.0,027.4,020.6,3.8,0000.0,0004.62,0007.88,0004.18
2024-01-14 11:33:00,SystemResetWarning,0822.0,4.99,000.00,019.1,018.7,000.0,027.3,020.1,3.9,0000.0,0004.63,0008.07,0004.18
2024-01-14 11:34:00,SystemResetWarning,0822.1,5.01,000.00,019.0,018.4,000.0,027.4,020.0,3.9,0000.0,0004.64,0008.15,0004.19
2024-01-14 11:35:00,SystemResetWarning,0822.0,5.00,000.00,018.9,018.1,000.0,027.4,020.0,3.9,0000.0,0004.70,0008.59,0004.21
2024-01-14 11:36:00,SystemResetWarning,0822.0,5.00,000.00,018.9,017.9,000.0,027.4,020.0,3.9,0000.0,0004.73,0008.97,0004.23
2024-01-14 11:37:00,SystemResetWarning,0822.0,5.00,000.00,018.9,018.1,000.0,027.4,020.3,3.9,0000.0,0004.77,0009.03,0004.26
2024-01-14 11:38:00,SystemResetWarning,0822.1,5.01,000.00,019.1,018.8,000.0,027.4,020.8,3.8,0000.0,0004.78,0009.06,0004.27
2024-01-14 11:39:00,SystemResetWarning,0822.1,5.00,000.00,019.2,019.3,000.0,027.4,021.0,3.8,0000.0,0004.78,0009.03,0004.28
2024-01-14 11:40:00,SystemResetWarning,0822.0,4.99,000.00,019.2,019.2,000.0,027.4,020.5,3.8,0001.7,0004.81,0009.10,0004.30
2024-01-14 11:41:00,SystemResetWarning,0822.0,4.99,000.00,019.1,018.8,000.0,027.3,020.1,3.8,0003.0,0004.81,0009.05,0004.31
2024-01-14 11:42:00,SystemResetWarning,0822.1,5.00,000.00,019.0,018.5,000.0,027.4,020.0,3.8,0000.0,0004.81,0008.99,0004.33
2024-01-14 11:43:00,SystemResetWarning,0822.1,5.00,000.00,019.0,018.2,000.0,027.4,020.0,3.8,0002.0,0004.81,0008.90,0004.32
2024-01-14 11:44:00,SystemResetWarning,0822.1,5.00,000.00,018.9,018.0,000.0,027.4,020.0,3.8,0003.3,0004.78,0008.54,0004.32
2024-01-14 11:45:00,SystemResetWarning,0822.0,5.00,000.00,018.9,017.8,000.0,027.4,020.0,3.8,0002.9,0004.77,0008.65,0004.32
2024-01-14 11:46:00,SystemResetWarning,0821.9,5.01,000.00,018.9,017.9,000.0,027.4,020.3,3.8,0000.0,0004.73,0008.38,0004.30
2024-01-14 11:47:00,SystemResetWarning,0822.0,5.00,000.00,019.0,018.6,000.0,027.4,020.7,3.8,0001.3,0004.71,0008.06,0004.29
2024-01-14 11:48:00,SystemResetWarning,0822.0,4.99,000.00,019.2,019.3,000.0,027.4,021.0,3.8,0000.6,0004.67,0008.50,0004.28
2024-01-14 11:49:00,SystemResetWarning,0822.0,4.99,000.00,019.2,019.2,000.0,027.4,020.5,3.8,0000.0,0004.64,0008.42,0004.27
2024-01-14 11:50:00,SystemResetWarning,0822.0,5.00,000.00,019.1,018.8,000.0,027.3,020.1,3.8,0000.0,0004.64,0008.39,0004.27
2024-01-14 11:51:00,SystemResetWarning,0822.0,5.01,000.00,019.0,018.5,000.0,027.4,020.0,3.8,0000.6,0004.65,0008.43,0004.27
2024-01-14 11:52:00,SystemResetWarning,0821.9,5.00,000.00,018.9,018.1,000.0,027.4,020.0,3.8,0002.1,0004.68,0008.54,0004.27
2024-01-14 11:53:00,SystemResetWarning,0822.0,5.00,000.00,018.9,017.9,000.0,027.4,020.0,3.8,0001.8,0004.70,0008.87,0004.27
2024-01-14 11:54:00,SystemResetWarning,0822.0,5.00,000.00,018.9,017.8,000.0,027.4,020.1,3.9,0003.8,0004.69,0008.89,0004.25
2024-01-14 11:55:00,SystemResetWarning,0822.0,5.02,000.00,019.0,018.2,000.0,027.4,020.5,3.8,0003.9,0004.68,0008.89,0004.26
2024-01-14 11:56:00,SystemResetWarning,0821.9,5.00,000.00,019.1,018.9,000.0,027.4,020.8,3.8,0003.5,0004.69,0008.82,0004.27
2024-01-14 11:57:00,SystemResetWarning,0821.9,4.98,000.00,019.1,018.9,000.0,027.3,020.4,3.8,0003.8,0004.73,0008.76,0004.29
2024-01-14 11:58:00,SystemResetWarning,0821.9,5.01,000.00,019.0,018.6,000.0,027.3,020.1,3.8,0003.8,0004.77,0008.92,0004.30
2024-01-14 11:59:00,SystemResetWarning,0821.9,5.00,000.00,018.9,018.3,000.0,027.3,020.0,3.9,0003.7,0004.80,0008.58,0004.30
